period_start,C,m1,H,J0,J1,J2,J3,J4,J5,JA,JB,JC,JD,JJ,JK,JN,#
2016-06-14 00:00:22,0.00,0.05,0.00,20.18,26.72,30.25,14.86,46.42,1023.21,2040.12,3580.98,3133.80,3559.76,600.03,605.89,9.58,0000 0000 0000 0000 000000
2016-06-14 00:05:24,0.01,0.05,0.00,20.17,26.72,30.25,14.84,46.46,1023.05,2040.13,3580.95,3133.73,3559.56,599.93,605.46,9.63,0000 0000 0000 0000 000000
2016-06-14 00:10:25,0.01,0.05,0.00,20.19,26.72,30.25,14.89,46.56,1023.01,2040.09,3580.85,3133.37,3559.12,600.32,605.80,9.68,0000 0000 0000 0000 000000
2016-06-14 00:15:26,0.00,0.05,0.00,20.26,26.72,30.24,14.89,46.62,1022.99,2040.07,3580.62,3133.20,3559.03,599.80,605.14,9.73,0000 0000 0000 0000 000000
2016-06-14 00:20:28,0.01,0.05,0.00,20.23,26.72,30.26,14.89,46.51,1022.99,2040.08,3580.15,3133.12,3559.02,600.00,605.33,9.78,0000 0000 0000 0000 000000
2016-06-14 00:25:29,0.01,0.05,0.00,20.19,26.72,30.27,14.83,46.48,1022.99,2040.24,3580.20,3133.12,3559.05,599.97,605.48,9.83,0000 0000 0000 0000 000000
2016-06-14 00:30:30,0.01,0.05,0.00,20.17,26.72,30.26,14.85,46.55,1022.98,2040.25,3580.05,3133.06,3559.01,599.67,605.20,9.88,0000 0000 0000 0000 000000
2016-06-14 00:35:32,-0.01,0.05,0.00,20.15,26.72,30.24,14.93,46.54,1022.98,2040.17,3580.01,3133.03,3559.00,600.29,605.91,9.93,0000 0000 0000 0000 000000
2016-06-14 00:40:33,-0.01,0.05,0.00,20.19,26.72,30.24,14.86,46.42,1022.97,2040.17,3580.00,3133.00,3559.00,600.12,605.65,9.98,0000 0000 0000 0000 000000
2016-06-14 00:45:34,0.00,0.05,0.00,20.20,26.72,30.25,14.89,46.60,1022.98,2040.13,3579.99,3133.00,3558.97,600.16,605.65,10.04,0000 0000 0000 0000 000000
2016-06-14 00:50:35,0.00,0.05,0.00,20.27,26.73,30.26,14.88,46.64,1022.96,2040.09,3579.93,3132.99,3558.84,600.31,605.61,10.09,0000 0000 0000 0000 000000
2016-06-14 00:55:37,0.01,0.05,0.00,20.29,26.73,30.25,14.84,46.62,1022.96,2040.10,3579.68,3132.98,3558.71,599.83,605.17,10.14,0000 0000 0000 0000 000000
2016-06-14 01:00:38,0.01,0.05,0.00,20.30,26.75,30.27,14.89,46.66,1022.96,2040.13,3579.58,3132.98,3558.50,600.02,605.28,10.19,0000 0000 0000 0000 000000
2016-06-14 01:05:39,0.01,0.05,0.00,20.33,26.75,30.27,14.86,46.79,1022.95,2040.14,3579.15,3132.95,3558.20,599.99,605.14,10.24,0000 0000 0000 0000 000000
2016-06-14 01:10:40,-0.00,0.05,0.00,20.30,26.75,30.29,14.89,46.60,1022.95,2040.04,3579.03,3132.85,3558.02,600.17,605.48,10.29,0000 0000 0000 0000 000000
2016-06-14 01:15:41,0.01,0.05,0.00,20.32,26.76,30.28,14.89,46.62,1022.96,2040.05,3579.02,3132.53,3558.00,599.98,605.26,10.34,0000 0000 0000 0000 000000
2016-06-14 01:20:43,0.01,0.05,0.00,20.33,26.77,30.30,14.91,46.72,1022.95,2040.07,3578.99,3132.26,3558.00,600.25,605.47,10.39,0000 0000 0000 0000 000000
2016-06-14 01:25:44,-0.00,0.05,0.00,20.35,26.77,30.32,14.82,46.58,1022.95,2040.01,3578.99,3132.08,3557.98,600.00,605.16,10.44,0000 0000 0000 0000 000000
2016-06-14 01:30:46,0.00,0.05,0.00,20.38,26.77,30.30,14.83,46.56,1022.92,2040.00,3578.89,3132.01,3557.95,599.71,604.84,10.49,0000 0000 0000 0000 000000
2016-06-14 01:35:47,0.01,0.05,0.00,20.37,26.78,30.32,14.90,46.60,1022.82,2040.00,3578.53,3132.00,3557.66,600.07,605.10,10.54,0000 0000 0000 0000 000000
2016-06-14 01:40:48,0.01,0.05,0.00,20.39,26.80,30.32,14.89,46.63,1022.88,2040.00,3578.09,3132.00,3557.23,600.05,605.18,10.59,0000 0000 0000 0000 000000
2016-06-14 01:45:50,0.00,0.05,0.00,20.41,26.80,30.34,14.87,46.63,1022.92,2040.00,3578.01,3131.99,3557.09,600.05,605.12,10.64,0000 0000 0000 0000 000000
2016-06-14 01:50:51,0.00,0.05,0.00,20.33,26.80,30.34,14.84,46.56,1022.94,2040.00,3577.99,3131.97,3557.01,600.33,605.55,10.69,0000 0000 0000 0000 000000
2016-06-14 01:55:53,0.00,0.05,0.00,20.28,26.80,30.35,14.88,46.62,1022.93,2040.00,3577.93,3131.89,3557.00,600.23,605.58,10.74,0000 0000 0000 0000 000000
2016-06-14 02:00:54,0.01,0.06,0.00,20.32,26.82,30.35,14.74,46.68,1022.87,2040.00,3577.72,3131.56,3556.98,600.25,605.43,10.79,0000 0000 0000 0000 000000
2016-06-14 02:05:55,-0.00,0.06,0.00,20.36,26.82,30.35,14.87,46.75,1022.81,2040.00,3577.76,3131.52,3556.98,600.29,605.36,10.84,0000 0000 0000 0000 000000
2016-06-14 02:10:56,0.01,0.06,0.00,20.40,26.82,30.37,14.86,46.68,1022.70,2040.00,3577.32,3131.14,3556.88,600.10,605.02,10.89,0000 0000 0000 0000 000000
2016-06-14 02:15:58,0.01,0.06,0.00,20.44,26.83,30.38,14.86,46.71,1022.56,2040.00,3577.06,3131.02,3556.36,600.00,604.63,10.94,0000 0000 0000 0000 000000
2016-06-14 02:20:59,0.00,0.06,0.00,20.41,26.85,30.39,14.86,46.70,1022.53,2039.99,3577.00,3131.00,3556.06,599.69,604.34,10.99,0000 0000 0000 0000 000000
2016-06-14 02:26:00,0.00,0.06,0.00,20.44,26.85,30.37,14.89,46.78,1022.52,2039.99,3577.01,3131.00,3556.01,600.09,604.80,11.04,0000 0000 0000 0000 000000
2016-06-14 02:31:01,0.00,0.06,0.00,20.46,26.86,30.41,14.75,46.42,1022.52,2039.98,3576.99,3130.98,3556.00,599.67,604.41,11.09,0000 0000 0000 0000 000000
2016-06-14 02:36:03,0.00,0.06,0.00,20.52,26.87,30.41,14.93,46.87,1022.50,2039.98,3576.65,3130.95,3555.99,600.19,604.68,11.14,0000 0000 0000 0000 000000
2016-06-14 02:41:04,0.01,0.06,0.00,20.48,26.87,30.45,14.82,46.65,1022.48,2039.99,3576.04,3130.89,3555.99,600.13,604.75,11.19,0000 0000 0000 0000 000000
2016-06-14 02:46:05,0.02,0.06,0.00,20.50,26.89,30.45,14.83,46.58,1022.49,2039.99,3576.00,3130.32,3555.84,600.32,604.90,11.24,0000 0000 0000 0000 000000
2016-06-14 02:51:07,0.01,0.06,0.00,20.55,26.90,30.46,14.77,46.63,1022.50,2039.99,3576.00,3130.06,3555.45,599.42,603.91,11.29,0000 0000 0000 0000 000000
2016-06-14 02:56:08,0.00,0.06,0.00,20.58,26.91,30.47,14.86,46.58,1022.50,2039.99,3575.97,3130.01,3555.09,600.34,604.56,11.34,0000 0000 0000 0000 000000
2016-06-14 03:01:09,0.01,0.06,0.00,20.49,26.92,30.49,14.69,46.50,1022.50,2039.98,3575.76,3130.00,3555.00,599.42,604.01,11.39,0000 0000 0000 0000 000000
2016-06-14 03:06:11,0.01,0.06,0.00,20.55,26.94,30.49,14.80,46.52,1022.50,2039.98,3575.07,3129.99,3555.00,599.92,604.44,11.44,0000 0000 0000 0000 000000
2016-06-14 03:11:12,0.00,0.06,0.00,20.58,26.95,30.51,14.79,46.58,1022.51,2039.98,3574.98,3129.95,3554.96,599.89,604.44,11.49,0000 0000 0000 0000 000000
2016-06-14 03:16:13,0.01,0.06,0.00,20.68,26.96,30.53,14.81,46.60,1022.49,2039.97,3574.95,3129.73,3554.71,600.01,604.16,11.54,0000 0000 0000 0000 000000
2016-06-14 03:21:14,0.03,0.06,0.00,20.75,26.97,30.53,14.91,46.77,1022.49,2039.97,3574.55,3129.35,3554.30,600.79,604.87,11.59,0000 0000 0000 0000 000000
2016-06-14 03:26:15,0.01,0.06,0.00,20.73,26.97,30.53,14.75,46.62,1022.49,2039.98,3574.29,3129.08,3554.04,599.60,603.71,11.64,0000 0000 0000 0000 000000
2016-06-14 03:31:17,-0.01,0.06,0.00,20.63,27.00,30.58,14.79,46.57,1022.49,2039.86,3574.05,3129.01,3554.00,599.77,604.05,11.69,0000 0000 0000 0000 000000
2016-06-14 03:36:17,-0.02,0.06,0.00,20.65,27.00,30.58,14.92,46.63,1022.49,2039.62,3574.01,3129.00,3553.99,599.93,604.33,11.74,0000 0000 0000 0000 000000
2016-06-14 03:41:19,-0.00,0.06,0.00,20.71,27.01,30.59,14.90,46.61,1022.49,2039.60,3574.00,3129.00,3553.98,600.44,604.52,11.79,0000 0000 0000 0000 000000
2016-06-14 03:46:20,-0.02,0.06,0.00,20.68,27.02,30.60,14.82,46.49,1022.49,2039.21,3573.99,3128.99,3553.62,599.94,604.15,11.84,0000 0000 0000 0000 000000
2016-06-14 03:51:21,0.01,0.06,0.00,20.70,27.05,30.60,14.85,46.72,1022.49,2039.04,3573.81,3128.71,3553.07,600.15,604.43,11.89,0000 0000 0000 0000 000000
2016-06-14 03:56:22,0.01,0.06,0.00,20.76,27.06,30.65,14.91,46.72,1022.48,2039.02,3573.70,3128.49,3553.01,600.04,604.02,11.94,0000 0000 0000 0000 000000
2016-06-14 04:01:24,0.01,0.06,0.00,20.80,27.08,30.68,14.88,46.77,1022.48,2039.01,3573.09,3128.07,3553.00,599.92,603.89,11.99,0000 0000 0000 0000 000000
2016-06-14 04:06:25,0.00,0.06,0.00,20.76,27.10,30.71,14.84,46.83,1022.48,2039.00,3573.00,3128.00,3552.95,600.33,604.37,12.04,0000 0000 0000 0000 000000
2016-06-14 04:11:26,0.01,0.06,0.00,20.83,27.12,30.64,14.79,46.71,1022.48,2039.00,3572.99,3128.00,3552.48,600.20,604.10,12.09,0000 0000 0000 0000 000000
2016-06-14 04:16:28,0.01,0.06,0.00,20.83,27.13,30.69,14.82,46.68,1022.48,2039.00,3572.90,3127.98,3552.09,600.34,604.21,12.14,0000 0000 0000 0000 000000
2016-06-14 04:21:29,0.01,0.06,0.00,20.84,27.15,30.73,14.85,46.66,1022.49,2038.99,3572.50,3127.86,3552.00,599.73,603.63,12.19,0000 0000 0000 0000 000000
2016-06-14 04:26:30,0.01,0.06,0.00,20.79,27.17,30.78,14.91,46.66,1022.48,2038.97,3572.02,3127.22,3552.00,600.43,604.44,12.24,0000 0000 0000 0000 000000
2016-06-14 04:31:31,0.00,0.06,0.00,20.80,27.17,30.79,14.83,46.27,1022.48,2038.97,3572.00,3127.02,3551.97,599.93,603.89,12.29,0000 0000 0000 0000 000000
2016-06-14 04:36:33,0.00,0.06,0.00,20.81,27.19,30.81,14.77,46.27,1022.49,2038.96,3571.97,3127.00,3551.85,599.78,603.68,12.34,0000 0000 0000 0000 000000
2016-06-14 04:41:34,0.01,0.06,0.00,20.82,27.20,30.80,14.85,46.29,1022.48,2038.92,3571.84,3127.00,3551.43,600.10,604.00,12.40,0000 0000 0000 0000 000000
2016-06-14 04:46:35,-0.02,0.06,0.00,20.87,27.22,30.80,14.81,46.38,1022.48,2038.67,3571.37,3126.99,3551.06,600.01,603.88,12.45,0000 0000 0000 0000 000000
2016-06-14 04:51:36,-0.03,0.06,0.00,20.94,27.23,30.83,14.74,46.32,1022.48,2038.25,3571.06,3126.91,3551.00,599.82,603.42,12.50,0000 0000 0000 0000 000000
2016-06-14 04:56:38,0.01,0.06,0.00,20.93,27.25,30.86,14.80,46.33,1022.48,2038.03,3571.01,3126.38,3550.88,599.72,603.50,12.55,0000 0000 0000 0000 000000
2016-06-14 05:01:39,0.01,0.06,0.00,20.92,27.27,30.87,14.85,46.33,1022.48,2038.00,3571.00,3126.13,3550.40,600.07,603.70,12.60,0000 0000 0000 0000 000000
2016-06-14 05:06:40,0.00,0.06,0.00,20.98,27.29,30.89,14.80,46.37,1022.48,2038.00,3570.99,3126.02,3550.03,600.03,603.58,12.65,0000 0000 0000 0000 000000
2016-06-14 05:11:42,0.01,0.06,0.00,21.02,27.30,30.85,14.76,46.24,1022.48,2038.00,3570.47,3126.00,3550.00,600.10,603.63,12.70,0000 0000 0000 0000 000000
2016-06-14 05:16:43,0.00,0.06,0.00,20.96,27.32,30.91,14.83,46.35,1022.48,2038.00,3570.10,3125.99,3549.99,600.01,603.66,12.75,0000 0000 0000 0000 000000
2016-06-14 05:21:44,0.01,0.06,0.00,21.00,27.34,30.95,14.81,46.33,1022.49,2038.00,3569.97,3125.74,3549.97,599.96,603.52,12.80,0000 0000 0000 0000 000000
2016-06-14 05:26:45,0.02,0.07,0.00,21.03,27.36,30.93,14.92,46.51,1022.49,2038.00,3569.54,3125.17,3549.57,600.45,603.98,12.85,0000 0000 0000 0000 000000
2016-06-14 05:31:46,0.01,0.07,0.00,21.01,27.37,30.97,14.78,46.42,1022.48,2038.00,3569.03,3125.01,3549.05,599.54,603.05,12.90,0000 0000 0000 0000 000000
2016-06-14 05:36:47,0.00,0.07,0.00,21.07,27.39,30.99,14.87,46.70,1022.48,2038.00,3569.00,3125.00,3549.00,600.22,603.62,12.95,0000 0000 0000 0000 000000
2016-06-14 05:41:48,0.00,0.07,0.00,21.15,27.41,30.98,14.84,46.54,1022.49,2037.99,3568.97,3124.97,3548.97,600.34,603.51,13.00,0000 0000 0000 0000 000000
2016-06-14 05:46:49,0.04,0.07,0.00,21.18,27.42,30.97,14.80,46.46,1022.49,2037.99,3568.44,3124.56,3548.43,599.86,603.05,13.05,0000 0000 0000 0000 000000
2016-06-14 05:51:51,0.01,0.07,0.00,21.12,27.45,30.92,14.81,46.47,1022.48,2037.98,3567.93,3124.02,3547.99,599.94,603.35,13.10,0000 0000 0000 0000 000000
2016-06-14 05:56:52,0.05,0.07,0.00,21.16,27.46,31.01,14.80,46.67,1022.48,2037.94,3566.75,3123.37,3547.25,599.62,602.75,13.15,0000 0000 0000 0000 000000
2016-06-14 06:01:53,0.05,0.07,0.00,21.15,27.47,31.01,14.77,46.44,1022.48,2037.91,3565.53,3122.56,3546.21,599.85,603.10,13.20,0000 0000 0000 0000 000000
2016-06-14 06:06:54,0.01,0.08,0.00,21.14,27.50,31.08,14.87,46.77,1022.48,2037.74,3564.62,3121.91,3545.59,600.31,603.58,13.25,0000 0000 0000 0000 000000
2016-06-14 06:11:56,0.02,0.08,0.00,21.19,27.51,31.11,14.92,46.74,1022.45,2037.42,3563.46,3121.11,3544.93,600.53,603.69,13.30,0000 0000 0000 0000 000000
2016-06-14 06:16:57,-0.01,0.08,0.00,21.26,27.52,31.01,14.78,46.67,1022.47,2037.14,3563.01,3120.99,3544.29,600.27,603.28,13.35,0000 0000 0000 0000 000000
2016-06-14 06:21:58,0.00,0.08,0.00,21.20,27.55,31.09,14.83,46.65,1022.48,2037.07,3563.00,3120.96,3544.02,599.69,602.69,13.40,0000 0000 0000 0000 000000
2016-06-14 06:26:59,-0.00,0.08,0.00,21.24,27.56,31.13,14.84,46.51,1022.47,2037.02,3562.98,3120.78,3544.00,600.01,602.97,13.45,0000 0000 0000 0000 000000
2016-06-14 06:32:00,0.01,0.08,0.00,21.29,27.57,31.10,14.76,46.34,1022.47,2037.01,3562.79,3120.27,3543.99,600.14,603.11,13.50,0000 0000 0000 0000 000000
2016-06-14 06:37:02,0.01,0.08,0.00,21.30,27.59,31.13,14.79,46.45,1022.47,2037.00,3562.26,3120.04,3543.90,600.26,603.21,13.55,0000 0000 0000 0000 000000
2016-06-14 06:42:03,0.01,0.08,0.00,21.36,27.60,31.10,14.75,46.47,1022.47,2037.00,3562.00,3120.00,3543.31,600.04,603.00,13.60,0000 0000 0000 0000 000000
2016-06-14 06:47:04,0.00,0.08,0.00,21.36,27.62,31.12,14.83,46.48,1022.44,2036.99,3561.98,3119.96,3543.01,600.53,603.37,13.65,0000 0000 0000 0000 000000
2016-06-14 06:52:06,0.01,0.08,0.00,21.34,27.64,31.17,14.85,46.58,1022.44,2036.99,3561.61,3119.84,3542.97,600.24,603.10,13.70,0000 0000 0000 0000 000000
2016-06-14 06:57:07,0.03,0.08,0.00,21.35,27.65,31.24,14.73,46.50,1022.48,2036.97,3561.03,3119.19,3542.61,599.70,602.58,13.75,0000 0000 0000 0000 000000
2016-06-14 07:02:08,0.00,0.08,0.00,21.35,27.67,31.21,14.79,46.49,1022.48,2036.97,3561.00,3119.02,3542.14,600.36,603.00,13.80,0000 0000 0000 0000 000000
2016-06-14 07:07:09,-0.00,0.08,0.00,21.35,27.68,31.24,14.84,46.67,1022.47,2036.97,3560.97,3119.00,3542.01,600.28,603.14,13.85,0000 0000 0000 0000 000000
2016-06-14 07:12:11,-0.01,0.08,0.00,21.48,27.70,31.21,14.80,46.60,1022.45,2036.81,3560.45,3118.98,3541.98,599.87,602.52,13.90,0000 0000 0000 0000 000000
2016-06-14 07:17:12,0.04,0.08,0.00,21.47,27.72,31.19,14.78,46.47,1022.45,2036.80,3560.01,3118.46,3541.52,600.22,602.81,13.95,0000 0000 0000 0000 000000
2016-06-14 07:22:14,-0.02,0.08,0.00,21.46,27.73,31.25,14.78,46.47,1022.45,2036.61,3559.69,3118.01,3541.01,599.97,602.52,14.00,0000 0000 0000 0000 000000
2016-06-14 07:27:15,0.01,0.08,0.00,21.41,27.75,31.34,14.79,46.33,1022.44,2036.22,3558.92,3117.67,3540.54,599.64,602.33,14.05,0000 0000 0000 0000 000000
2016-06-14 07:32:16,0.01,0.08,0.00,21.44,27.76,31.32,14.80,46.52,1022.40,2036.05,3558.13,3117.06,3540.02,600.05,602.63,14.10,0000 0000 0000 0000 000000
2016-06-14 07:37:18,0.02,0.08,0.00,21.51,27.77,31.33,14.82,46.61,1022.46,2036.02,3557.63,3116.91,3539.63,600.28,602.71,14.15,0000 0000 0000 0000 000000
2016-06-14 07:42:19,0.03,0.09,0.00,21.53,27.80,31.36,14.73,46.48,1022.47,2036.01,3556.98,3116.15,3538.97,599.82,602.29,14.20,0000 0000 0000 0000 000000
2016-06-14 07:47:20,0.03,0.09,0.00,21.56,27.80,31.36,14.85,46.53,1022.48,2036.00,3556.17,3115.79,3538.18,600.47,602.83,14.25,0000 0000 0000 0000 000000
2016-06-14 07:52:22,0.03,0.09,0.00,21.62,27.82,31.34,14.79,46.40,1022.48,2036.00,3555.37,3115.04,3537.74,599.75,602.11,14.30,0000 0000 0000 0000 000000
2016-06-14 07:57:23,0.01,0.09,0.00,21.59,27.84,31.33,14.78,46.32,1022.48,2036.00,3554.91,3114.97,3537.05,600.02,602.26,14.35,0000 0000 0000 0000 000000
2016-06-14 08:02:24,0.02,0.09,0.00,21.58,27.85,31.40,14.78,46.39,1022.48,2036.00,3554.39,3114.58,3537.00,599.89,602.25,14.40,0000 0000 0000 0000 000000
2016-06-14 08:07:25,0.00,0.09,0.00,21.54,27.87,31.42,14.76,46.56,1022.48,2035.99,3554.02,3114.10,3536.97,599.57,602.10,14.45,0000 0000 0000 0000 000000
2016-06-14 08:12:26,-0.00,0.09,0.00,21.58,27.88,31.47,14.84,46.52,1022.48,2035.98,3554.00,3114.01,3536.78,600.19,602.48,14.50,0000 0000 0000 0000 000000
2016-06-14 08:17:28,0.01,0.09,0.00,21.62,27.90,31.47,14.77,46.33,1022.48,2035.97,3553.97,3114.00,3536.20,599.80,602.14,14.55,0000 0000 0000 0000 000000
2016-06-14 08:22:29,0.00,0.09,0.00,21.56,27.90,31.51,14.83,46.55,1022.48,2035.96,3553.68,3113.99,3536.03,600.13,602.49,14.60,0000 0000 0000 0000 000000
2016-06-14 08:27:31,0.00,0.09,0.00,21.60,27.92,31.52,14.79,46.71,1022.48,2035.91,3553.10,3113.96,3536.00,599.70,602.00,14.65,0000 0000 0000 0000 000000
2016-06-14 08:32:32,0.00,0.09,0.00,21.62,27.92,31.53,14.81,46.58,1022.48,2035.88,3553.02,3113.75,3535.98,599.98,602.32,14.70,0000 0000 0000 0000 000000
2016-06-14 08:37:34,-0.01,0.09,0.00,21.59,27.95,31.54,14.76,46.44,1022.46,2035.65,3553.00,3113.13,3535.90,599.81,602.12,14.76,0000 0000 0000 0000 000000
2016-06-14 08:42:35,-0.01,0.09,0.00,21.61,27.95,31.58,14.77,46.60,1022.39,2035.37,3552.92,3113.01,3535.33,599.99,602.30,14.81,0000 0000 0000 0000 000000
2016-06-14 08:47:36,-0.00,0.09,0.00,21.60,27.96,31.56,14.81,46.73,1022.33,2035.16,3552.34,3113.00,3535.03,599.96,602.27,14.86,0000 0000 0000 0000 000000
2016-06-14 08:52:38,-0.00,0.09,0.00,21.62,27.97,31.57,14.84,46.81,1022.35,2035.07,3552.12,3113.00,3535.00,599.77,602.11,14.91,0000 0000 0000 0000 000000
2016-06-14 08:57:39,0.00,0.09,0.00,21.62,27.98,31.59,14.80,46.48,1022.39,2035.01,3552.02,3112.95,3534.95,599.78,602.01,14.96,0000 0000 0000 0000 000000
2016-06-14 09:02:40,0.01,0.09,0.00,21.69,28.00,31.59,14.75,46.54,1022.28,2035.00,3552.00,3112.79,3534.60,599.88,602.03,15.01,0000 0000 0000 0000 000000
2016-06-14 09:07:42,0.02,0.09,0.00,21.70,28.00,31.61,14.76,46.38,1022.12,2035.00,3551.99,3112.12,3534.03,599.78,601.81,15.06,0000 0000 0000 0000 000000
2016-06-14 09:12:43,0.01,0.09,0.00,21.73,28.01,31.59,14.76,46.51,1022.17,2035.00,3551.66,3112.02,3534.00,599.77,601.69,15.11,0000 0000 0000 0000 000000
2016-06-14 09:17:44,0.00,0.09,0.00,21.68,28.02,31.62,14.85,46.52,1022.16,2035.00,3551.05,3111.99,3533.88,600.40,602.36,15.16,0000 0000 0000 0000 000000
2016-06-14 09:22:45,0.01,0.10,0.00,21.68,28.04,31.62,14.77,46.54,1022.27,2034.98,3550.98,3111.92,3533.22,600.08,602.11,15.21,0000 0000 0000 0000 000000
2016-06-14 09:27:46,0.02,0.10,0.00,21.66,28.05,31.64,14.81,46.47,1022.22,2034.99,3550.67,3111.60,3533.05,600.06,602.10,15.26,0000 0000 0000 0000 000000
2016-06-14 09:32:47,0.01,0.10,0.00,21.62,28.06,31.64,14.78,46.48,1022.25,2034.95,3550.12,3111.10,3532.99,599.69,601.78,15.31,0000 0000 0000 0000 000000
2016-06-14 09:37:49,0.00,0.10,0.00,21.68,28.07,31.65,14.75,46.39,1022.25,2034.91,3550.00,3111.00,3532.96,599.99,602.00,15.36,0000 0000 0000 0000 000000
2016-06-14 09:42:50,0.01,0.10,0.00,21.76,28.07,31.64,14.81,46.78,1022.20,2034.93,3549.94,3110.99,3532.66,600.09,601.91,15.41,0000 0000 0000 0000 000000
2016-06-14 09:47:51,0.02,0.10,0.00,21.75,28.10,31.62,14.77,46.70,1022.28,2034.96,3549.20,3110.93,3532.10,599.86,601.59,15.46,0000 0000 0000 0000 000000
2016-06-14 09:52:53,0.01,0.10,0.00,21.70,28.10,31.69,14.80,46.70,1022.22,2034.98,3549.00,3110.56,3532.00,600.10,601.89,15.51,0000 0000 0000 0000 000000
2016-06-14 09:57:54,0.00,0.10,0.00,21.74,28.12,31.68,14.75,46.51,1022.12,2034.95,3548.96,3110.07,3531.99,600.08,601.92,15.56,0000 0000 0000 0000 000000
2016-06-14 10:02:55,0.01,0.10,0.00,21.74,28.12,31.69,14.88,46.84,1022.06,2034.91,3548.60,3110.00,3531.95,600.33,602.30,15.61,0000 0000 0000 0000 000000
2016-06-14 10:07:56,0.01,0.10,0.00,21.77,28.13,31.69,14.70,46.48,1022.06,2034.92,3548.07,3110.00,3531.41,599.45,601.15,15.66,0000 0000 0000 0000 000000
2016-06-14 10:12:57,0.00,0.10,0.00,21.80,28.15,31.69,14.88,46.76,1022.07,2034.87,3548.00,3109.94,3531.02,599.99,601.64,15.71,0000 0000 0000 0000 000000
2016-06-14 10:17:59,0.02,0.10,0.00,21.81,28.15,31.70,14.80,47.01,1022.03,2034.84,3547.93,3109.58,3531.00,600.46,602.09,15.76,0000 0000 0000 0000 000000
2016-06-14 10:23:00,0.02,0.10,0.00,21.81,28.17,31.74,14.72,46.40,1022.05,2034.88,3547.46,3109.10,3530.98,599.89,601.45,15.81,0000 0000 0000 0000 000000
2016-06-14 10:28:01,-0.00,0.10,0.00,21.84,28.17,31.74,14.75,46.52,1022.05,2034.86,3547.04,3109.03,3530.75,600.17,601.70,15.86,0000 0000 0000 0000 000000
2016-06-14 10:33:02,-0.02,0.10,0.00,21.89,28.17,31.71,14.77,46.49,1022.02,2034.55,3546.99,3109.00,3530.10,600.04,601.49,15.91,0000 0000 0000 0000 000000
2016-06-14 10:38:03,0.00,0.10,0.00,21.85,28.18,31.75,14.80,46.64,1022.01,2034.34,3546.89,3108.98,3530.00,600.42,601.97,15.96,0000 0000 0000 0000 000000
2016-06-14 10:43:04,-0.01,0.10,0.00,21.89,28.20,31.72,14.75,46.50,1022.01,2034.18,3546.21,3108.67,3529.98,600.05,601.55,16.01,0000 0000 0000 0000 000000
2016-06-14 10:48:05,0.01,0.10,0.00,21.91,28.20,31.72,14.74,46.55,1022.00,2034.07,3546.01,3108.16,3529.86,599.89,601.25,16.06,0000 0000 0000 0000 000000
2016-06-14 10:53:07,0.00,0.10,0.00,21.90,28.20,31.75,14.78,46.67,1022.00,2034.06,3546.00,3108.04,3529.36,599.84,601.23,16.11,0000 0000 0000 0000 000000
2016-06-14 10:58:08,0.00,0.10,0.00,21.97,28.22,31.78,14.71,46.44,1022.00,2034.01,3545.93,3108.00,3529.00,599.62,600.89,16.16,0000 0000 0000 0000 000000
2016-06-14 11:03:10,0.01,0.10,0.00,21.92,28.22,31.79,14.76,46.74,1022.00,2034.02,3545.54,3108.00,3529.00,600.41,601.85,16.21,0000 0000 0000 0000 000000
2016-06-14 11:08:11,0.00,0.10,0.00,21.93,28.22,31.80,14.77,46.63,1021.99,2034.00,3545.06,3107.95,3528.97,599.64,601.02,16.26,0000 0000 0000 0000 000000
2016-06-14 11:13:12,0.01,0.10,0.00,21.88,28.24,31.82,14.80,46.70,1022.00,2034.01,3545.00,3107.73,3528.75,600.10,601.57,16.31,0000 0000 0000 0000 000000
2016-06-14 11:18:13,0.02,0.10,0.00,21.90,28.25,31.84,14.75,46.59,1021.99,2034.00,3544.98,3107.33,3528.27,600.01,601.48,16.36,0000 0000 0000 0000 000000
2016-06-14 11:23:14,0.00,0.11,0.00,21.88,28.25,31.77,14.72,46.63,1021.99,2034.00,3544.80,3107.03,3528.01,599.85,601.30,16.41,0000 0000 0000 0000 000000
2016-06-14 11:28:16,0.01,0.11,0.00,21.85,28.25,31.82,14.60,46.35,1021.99,2034.00,3544.29,3107.00,3528.00,599.00,600.50,16.46,0000 0000 0000 0000 000000
2016-06-14 11:33:17,0.00,0.11,0.00,21.88,28.25,31.80,14.72,46.45,1021.99,2034.00,3544.01,3107.00,3527.99,599.76,601.09,16.51,0000 0000 0000 0000 000000
2016-06-14 11:38:18,0.00,0.11,0.00,21.98,28.26,31.76,14.70,46.30,1021.99,2034.00,3544.00,3106.99,3527.95,599.71,601.06,16.56,0000 0000 0000 0000 000000
2016-06-14 11:43:19,0.01,0.11,0.00,22.00,28.27,31.75,14.73,46.42,1021.98,2034.00,3543.86,3106.85,3527.39,600.11,601.33,16.61,0000 0000 0000 0000 000000
2016-06-14 11:48:21,0.02,0.11,0.00,21.94,28.27,31.73,14.71,46.28,1021.97,2034.00,3543.31,3106.41,3527.04,600.19,601.73,16.66,0000 0000 0000 0000 000000
2016-06-14 11:53:22,0.01,0.11,0.00,22.00,28.27,31.72,14.78,46.60,1021.92,2034.00,3543.03,3106.07,3527.00,600.25,601.44,16.71,0000 0000 0000 0000 000000
2016-06-14 11:58:24,0.00,0.11,0.00,22.05,28.30,31.72,14.63,46.44,1021.78,2034.00,3543.00,3106.00,3526.97,599.72,600.72,16.76,0000 0000 0000 0000 000000
2016-06-14 12:03:25,0.00,0.11,0.00,22.01,28.30,31.77,14.79,46.73,1021.79,2034.00,3542.93,3106.00,3526.92,599.93,601.17,16.81,0000 0000 0000 0000 000000
2016-06-14 12:08:26,0.02,0.11,0.00,21.99,28.30,31.83,14.72,46.42,1021.72,2034.00,3542.20,3105.97,3526.32,599.51,600.56,16.86,0000 0000 0000 0000 000000
2016-06-14 12:13:27,0.01,0.11,0.00,21.99,28.31,31.83,14.85,46.68,1021.56,2034.00,3542.01,3105.83,3526.03,600.21,601.09,16.91,0000 0000 0000 0000 000000
2016-06-14 12:18:28,0.01,0.11,0.00,21.97,28.32,31.85,14.84,46.44,1021.53,2033.99,3542.00,3105.63,3526.00,600.14,601.28,16.96,0000 0000 0000 0000 000000
2016-06-14 12:23:30,0.00,0.11,0.00,21.98,28.32,31.83,14.84,46.55,1021.51,2033.98,3541.99,3105.20,3525.99,599.76,600.88,17.01,0000 0000 0000 0000 000000
2016-06-14 12:28:31,0.00,0.11,0.00,22.01,28.32,31.90,14.75,46.30,1021.52,2033.97,3541.92,3105.03,3525.95,600.01,600.89,17.06,0000 0000 0000 0000 000000
2016-06-14 12:33:32,0.01,0.11,0.00,22.06,28.34,31.88,14.76,46.52,1021.51,2033.96,3541.39,3105.00,3525.68,599.52,600.39,17.11,0000 0000 0000 0000 000000
2016-06-14 12:38:33,0.01,0.11,0.00,22.02,28.35,31.89,14.70,46.49,1021.50,2033.97,3541.03,3105.00,3525.17,599.94,600.69,17.16,0000 0000 0000 0000 000000
2016-06-14 12:43:34,-0.00,0.11,0.00,21.98,28.35,31.93,14.70,46.40,1021.50,2033.96,3541.00,3104.99,3525.02,599.31,600.31,17.21,0000 0000 0000 0000 000000
2016-06-14 12:48:35,0.00,0.11,0.00,22.03,28.35,31.95,14.79,46.60,1021.50,2033.97,3541.00,3104.93,3525.00,600.41,601.44,17.27,0000 0000 0000 0000 000000
2016-06-14 12:53:37,0.00,0.11,0.00,22.01,28.36,31.96,14.80,46.58,1021.49,2033.95,3540.86,3104.67,3525.00,600.26,601.13,17.32,0000 0000 0000 0000 000000